Regional Weather Roundup
Issued by NWS

Home | Current Version | Previous Version | Graphics & Text | Print | Product List | Glossary On
Versions: 1 2 3 4 5 6 7 8 9 10 11 12 13 14 15 16 17 18 19 20 21 22 23 24 25 26 27 28 29 30 31 32 33 34 35 36 37 38 39 40 41 42 43 44 45 46 47 48 49 50
000
ASUS43 KMKX 311100
RWRWI

WISCONSIN REGIONAL WEATHER ROUNDUP
NATIONAL WEATHER SERVICE MILWAUKEE/SULLIVAN WI
600 AM CDT TUE MAY 31 2016

NOTE: "FAIR" INDICATES FEW OR NO CLOUDS BELOW 12,000 FEET WITH NO
SIGNIFICANT WEATHER AND/OR OBSTRUCTIONS TO VISIBILITY.

WIZ001-002-006>008-014>016-023>028-311200-
NORTHWEST WISCONSIN

CITY           SKY/WX    TMP DP  RH WIND       PRES   REMARKS
SUPERIOR ARPT  CLOUDY    44  41  89 NE13G25   30.00F
ASHLAND        CLOUDY    49  45  86 NE12      30.00F
HAYWARD        CLOUDY    57  50  77 NE8       29.92F
SIREN          CLOUDY    61  56  83 N7        29.88S
CUMBERLAND     CLOUDY    61  54  77 SE7       29.92R
RICE LAKE      CLOUDY    64  55  71 S9        29.93R
CHETEK         CLOUDY    63  57  81 SW6       29.92R
LADYSMITH      DRIZZLE   61  56  82 E5        29.96R
EAU CLAIRE     NOT AVBL
MENOMONIE      CLOUDY    64  56  75 CALM      29.91R
NEW RICHMOND   CLOUDY    64  55  70 SE6       29.88S
OSCEOLA        CLOUDY    66  55  68 SE7       29.90S
$$

WIZ003>005-009-010-017-018-311200-
NORTH CENTRAL WISCONSIN

CITY           SKY/WX    TMP DP  RH WIND       PRES   REMARKS
MANITOWISH WTR NOT AVBL
ARBOR VITAE    PTCLDY    55  51  86 E6        30.04S
WOODRUFF       PTCLDY    55  51  86 E6        30.04S
RHINELANDER    CLOUDY    52  47  83 E10       30.06R
EAGLE RIVER      N/A     50  44  80 E8        30.07R
LAND O LAKES   PTCLDY    48  44  85 E7        30.08S
PHILLIPS       CLOUDY    57  50  79 E6        29.98F
TOMAHAWK       CLOUDY    56  49  78 E5        30.03S
MEDFORD        CLOUDY    59  56  89 E12       29.94F
MERRILL        CLOUDY    57  51  82 SE7       30.03S
$$

WIZ029-030-035-036-043>047-311200-
CENTRAL WISCONSIN

CITY           SKY/WX    TMP DP  RH WIND       PRES   REMARKS
WAUSAU         MOCLDY    58  50  75 E9        30.01R
MOSINEE        PTCLDY    55  54  94 E7        30.03R
MARSHFIELD     CLOUDY    62  54  74 E9        29.96S
STEVENS POINT  MOCLDY    56  53  90 NE7       30.02R
WAUPACA        CLOUDY    60  58  92 NE10      30.03R
WAUTOMA        CLOUDY   N/A N/A N/A NE6       30.00S
WISC RAPIDS    CLOUDY    62  54  74 E8        30.00R
CAMP DOUGLAS   NOT AVBL
$$

WIZ011>013-019>022-031-037>040-048>050-311200-
NORTHEAST WISCONSIN

CITY           SKY/WX    TMP DP  RH WIND       PRES   REMARKS
ANTIGO         CLOUDY    51  48  89 E10       30.07R
SHAWANO        CLOUDY    57  49  76 NE13      30.08R
OCONTO         PTCLDY    51  51  97 NE7       30.08R
STURGEON BAY   NOT AVBL
GREEN BAY      PTCLDY    57  53  86 NE12      30.07R
MANITOWOC      NOT AVBL
APPLETON       MOCLDY    57  52  82 E13       30.03S
CLINTONVILLE   CLOUDY    55  50  82 E7        30.06R
OSHKOSH        CLOUDY    64  59  83 NE7       30.02R
$$

WIZ032>034-041-042-053>061-311200-
SOUTHWEST WISCONSIN

CITY           SKY/WX    TMP DP  RH WIND       PRES   REMARKS
LA CROSSE      CLOUDY    64  59  83 SE7       29.92R
SPARTA         CLOUDY    59  59 100 CALM      29.96R
VIROQUA        CLOUDY    61  59  95 SE12      29.96R
BOSCOBEL       NOT AVBL
PRAIRIE DU CHI CLOUDY    60  59  96 CALM      29.94R
PLATTEVILLE    CLEAR     63  58  86 E10       29.96S
$$

WIZ056-057-062-063-064-067-068-311200-
SOUTH CENTRAL WISCONSIN

CITY           SKY/WX    TMP DP  RH WIND       PRES   REMARKS
REEDSBURG      CLOUDY    62  56  82 CALM      29.97S
BARABOO/DELLS  CLOUDY    64  53  69 SE7       29.98R
LONE ROCK      NOT AVBL
MINERAL POINT  PTCLDY    64  55  72 E10       29.97S
MADISON        CLOUDY    63  58  83 SE5       30.00S
MIDDLETON      CLOUDY    64  61  87 E6        30.01R
WATERTOWN      CLOUDY    60  60 100 CALM      30.02R
MONROE         PTCLDY    61  55  82 E8        29.98F
JANESVILLE     CLOUDY    63  57  82 CALM      30.00F
$$

WIZ051-052-058>065-066-070>072-311200-
SOUTHEAST WISCONSIN

CITY           SKY/WX    TMP DP  RH WIND       PRES   REMARKS
MILWAUKEE      CLOUDY    66  54  65 N6        30.02R
WAUKESHA       MOCLDY    59  55  88 CALM      30.04S
MILWAUKEE/TIMM CLOUDY    64  52  63 CALM      30.03R
RACINE         CLOUDY    63  55  75 CALM      30.03R
BURLINGTON     MOCLDY    60  57  92 CALM      30.01S
KENOSHA        CLOUDY    59  53  80 E3        30.01R
FOND DU LAC    CLOUDY    64  58  80 NE5       30.02R
SHEBOYGAN      PTCLDY    57  53  86 NE10      30.05S
WEST BEND      LGT RAIN  61  57  88 CALM      30.03F
JUNEAU         CLOUDY    61  58  90 E3        30.03S
$$

LSZ147-162-311200-
LAKE SUPERIOR

STATION/POSITION TIME  TEMP    WIND        PRES    WAVE
                       AIR SEA DIR/SP/G            HT/PER
                 (UTC) (F)     (DEG/KT/KT) (MB)    (FT/S)
W MID LAKE BUOY  0950   42 38   90/ 14/ 17 1019.2R   2/ 3
DEVILS ISLAND    1000   44      90/ 21/ 24 1018.1R
SAXON HARBOR     1000   52      CALM  /  3 1015.9
$$

LMZ867-665-643>646-311200-
LAKE MICHIGAN

STATION/POSITION TIME  TEMP    WIND        PRES    WAVE
                       AIR SEA DIR/SP/G            HT/PER
                 (UTC) (F)     (DEG/KT/KT) (MB)    (FT/S)
CHAMBERS ISLAND  1040   52      10/ 12/ 14 1019.0R
N MID LAKE BUOY  0950   49 49   20/ 12/ 14 1017.8R   1/ 4
NORTHPORT PIER   1000   52      10/  6/  8 1018.3R
KEWAUNEE LAKESHO 1000   51      20/ 12/ 18 1016.7R
SHEBOYGAN LAKESH 1000   52     340/ 17/ 19 1017.8R
PORT WASHINGTON  1000   65     280/  7/ 15 1017.3R
S MID LAKE BUOY  0950   58 56  140/  4/  6 1015.5R   0
KENOSHA   LAKESH 1000   65     180/  1/  2 1015.9R
$$

TC  - TEMPERATURE IN CELSIUS
VSB - VISIBILITY IN STATUTE MILES
WCI - WIND CHILL INDEX
HX  - HEAT INDEX




USA.gov is the U.S. government's official web portal to all federal, state and local government web resources and services.